Showing default

RELAY 1 (A-15), 503

Orbit data source: Space-Track

RELAY 1 (A-15), 503 is a payload satellite owned by GSFC (US) that was launched on Thu, 13 Dec 1962 UTC via a THOR DELTA B launch vehicle from the Air Force Eastern Test Range (AFETR). Payload-class satellites include a variety of spacecraft equipped with specific instruments for various scientific and technological missions. These include communications satellites like Starlink; space stations such as the ISS; scientific satellites like the Hubble; Earth observation satellites from companies like Planet Labs, Umbra, and HawkEye 360; GPS; miniature CubeSats for education and research; and military/defense satellites.

Loading next visibility...
Identifier
503, 1962-068A
Orbit
Active
Country
Flag of USUS
Related business
Manufacturer
RCA/East Windsor
Mission
Spacecraft
Bus & Motor
RELAY, Unknown motor
Mass
78 kg wet, 78 kg dry
Launch date (UTC)
1962-12-13 (63 years ago)
Launch vehicle
THOR DELTA B
Launch site
Air Force Eastern Test Range (AFETR)
Object type
Payload
Rocket body
Debris
Shape & HBR
Unknown
Radar Cross Section
Medium (>0.1 m² and <1 m²)

Expand to show TLE details & history
Last TLE update: 14 hours ago

TLE from 14 hours ago
0 RELAY 1 (A-15)
1   503U 62068A   26100.91969735 -.00000029  00000-0  00000+0 0  9999
2   503  47.4910 151.3012 2838285 136.8997  19.8627  7.78167411800246
Epoch: 2026-04-10T22:04Z
TLE epoch observation values (Epoch: 2026-04-10T22:04:21.851Z)
Latitude
5.16031°
Longitude
156.33907°
Altitude
1,665.805 km
Speed
7.879 km/s
True Right ascension
21h 46m 18s
True Declination
5° 07' 59"
Sunlit
Object was in daylight at epoch
Visualization orbit readout
Latitude
Unknown
Longitude
Unknown
Altitude
Unknown
Speed
Unknown
Apparent Right ascension
Unknown
Apparent Declination
Unknown
Sunlit
N/A
Visualization observer readout
Local Sidereal Time
17:57:25
Azimuth
Unknown
Elevation
Unknown
Doppler factor
Unknown
Orbital elements
Apogee altitude
7,432.968 km
Perigee altitude
1,326.256 km
Semi-major axis
10,757.749 km
Eccentricity
0.28383
Inclination
47.491°
RAAN
151.3012°
Arg. of periapsis
136.8997°
True anomaly
36.06032°
Mean anomaly
19.8627°
Eccentric anomaly
27.32854°
Mean motion
1.94519 °/min
Orbital period
185.07 mins
BSTAR
0
Loading maneuver chart data...
Computing Atmospheric mass density...
Loading historical data...
Loading historical data...
Loading historical data...
Loading historical data...
Loading historical data...
Loading historical data...
Loading historical data...
Other satellites on launch #68 in the year 1962 (1962-12-13 UTC)

Documentation

Showing up to 5 results
|